Weather History for Poughkeepsie, NY

Change the Weather History Date:

Tuesday, May 6, 2014

  Actual Average Record
Temperature  
Mean Temperature 54 °F 56 °F  
Max Temperature 66 °F 69 °F 87 °F (1949)
Min Temperature 42 °F 43 °F 30 °F (1954)
Degree Days  
Heating Degree Days 11 10  
Month to date heating degree days 48 62  
Since 1 July heating degree days 6252 6001  
Cooling Degree Days 0 0  
Month to date cooling degree days 0 0  
Year to date cooling degree days 6 5  
Growing Degree Days 3 (Base 50)    
Moisture  
Dew Point 32 °F    
Average Humidity 46    
Maximum Humidity 76    
Minimum Humidity 25    
Precipitation  
Precipitation 0.00 in 0.13 in 1.78 in (1991)
Month to date precipitation 0.27 0.75  
Year to date precipitation 11.73 13.84  
Sea Level Pressure  
Sea Level Pressure 29.93 in    
Wind  
Wind Speed 4 mph (NNW)    
Max Wind Speed 18 mph    
Max Gust Speed 23 mph    
Visibility 10 miles    
Events      
T = Trace of Precipitation, MM = Missing Value Source: NWS Daily Summary

Daily Weather History Graph

Daily Weather History Graph

Search for Another Location

Airport:

Trip Planner

Search our weather history database for the weather conditions in past years. The results will help you decide how hot, cold, wet, or windy it might be!

Date:

Astronomy

May. 06, 2014 Rise Set
Actual Time 5:46 AM EDT 7:58 PM EDT
Civil Twilight 5:15 AM EDT 8:29 PM EDT
Nautical Twilight 4:37 AM EDT 9:07 PM EDT
Astronomical Twilight 3:55 AM EDT 9:49 PM EDT
Moon 12:00 PM EDT (5/6) 1:15 AM EDT (5/6)
Length of Visible Light 15h 14m
Length of Day
14h 12m
Waxing Crescent, 46% of the Moon is Illuminated
May 6
Waxing Crescent
May 6
First Quarter
May 14
Full
May 21
Last Quarter
May 28
New

Hourly Weather History & Observations

Time (EDT) Temp. Dew Point Humidity Pressure Visibility Wind Dir Wind Speed Gust Speed Precip Events Conditions
12:53 AM 45.0 °F 36.0 °F 71% 29.89 in 10.0 mi Calm Calm - N/A   Clear
1:53 AM 42.1 °F 35.1 °F 76% 29.89 in 10.0 mi Calm Calm - N/A   Clear
2:53 AM 43.0 °F 36.0 °F 76% 29.88 in 10.0 mi Calm Calm - N/A   Clear
3:53 AM 43.0 °F 36.0 °F 76% 29.88 in 10.0 mi Calm Calm - N/A   Clear
7:53 AM 48.9 °F 39.9 °F 71% 29.93 in 10.0 mi Calm Calm - N/A   Overcast
8:53 AM 53.1 °F 35.1 °F 50% 29.93 in 10.0 mi Calm Calm - N/A   Overcast
10:53 AM 60.1 °F 36.0 °F 41% 29.91 in 10.0 mi Calm Calm - N/A   Partly Cloudy
11:53 AM 60.1 °F 33.1 °F 36% 29.90 in 10.0 mi WSW 3.5 mph - N/A   Overcast
12:53 PM 62.1 °F 33.1 °F 34% 29.89 in 10.0 mi Variable 4.6 mph - N/A   Overcast
1:53 PM 62.1 °F 33.1 °F 34% 29.90 in 10.0 mi NNW 9.2 mph 17.3 mph N/A   Overcast
2:53 PM 63.0 °F 30.9 °F 30% 29.89 in 10.0 mi NNW 16.1 mph 23.0 mph N/A   Overcast
3:53 PM 64.9 °F 32.0 °F 29% 29.89 in 10.0 mi NW 11.5 mph 19.6 mph N/A   Partly Cloudy
4:53 PM 64.9 °F 28.0 °F 25% 29.89 in 10.0 mi NNW 18.4 mph 23.0 mph N/A   Scattered Clouds
5:53 PM 64.0 °F 28.0 °F 26% 29.91 in 10.0 mi NNW 13.8 mph 21.9 mph N/A   Clear
6:53 PM 63.0 °F 27.0 °F 26% 29.94 in 10.0 mi NNW 12.7 mph - N/A   Clear
7:53 PM 60.1 °F 27.0 °F 28% 29.97 in 10.0 mi NNW 9.2 mph 16.1 mph N/A   Clear
8:53 PM 55.9 °F 28.0 °F 34% 30.00 in 10.0 mi NNW 5.8 mph - N/A   Clear
9:53 PM 54.0 °F 28.9 °F 38% 30.04 in 10.0 mi WNW 3.5 mph - N/A   Clear
10:53 PM 46.9 °F 33.1 °F 59% 30.05 in 10.0 mi North 4.6 mph - N/A   Clear
11:53 PM 46.9 °F 32.0 °F 56% 30.07 in 10.0 mi Calm Calm - N/A   Clear